Location: Hilina Pali Trail
(19.2864°N, 155.2806°W)
Time: 13:41:01
(UTC+00:00)

Daily predictions for brighter satellites

Satellite Brightness Start Highest point End
(mag) Time Altitude Azimuth Time Altitude Azimuth Time Altitude Azimuth
USA 215 4.2 13:38:24 10° ESE 13:44:27 41° NE 13:47:23 27° N
Cosmos 2333 Rocket 2.8 13:54:58 52° E 13:54:58 52° E 13:59:58 10° SSE
NOSS 0 Rocket 4.0 14:02:58 60° N 14:04:03 75° ENE 14:10:15 10° SSE
ADEOS Rocket 3.2 13:59:11 10° NNE 14:05:50 74° ESE 14:07:57 43° S
Hubble Space Telescope 2.5 14:09:47 31° ENE 14:09:47 31° ENE 14:12:12 10° E
CZ-4B R/B 4.4 14:10:12 10° N 14:12:54 30° N 14:12:54 30° N
ADEOS II 2.6 14:10:49 10° NNE 14:15:58 58° E 14:20:40 13° S
Cosmos 2237 Rocket 2.3 14:12:43 24° N 14:16:11 71° ENE 14:21:46 10° SSE
Cosmos 2112 Rocket 4.5 14:11:45 10° N 14:16:55 59° ENE 14:22:02 10° SSE
ATLAS 5 CENTAUR R/B 3.4 14:11:14 10° N 14:17:20 48° ENE 14:23:40 10° SE
Cosmos 1153 Rocket 4.4 14:13:29 10° N 14:19:52 81° W 14:26:16 10° S
Cosmos 1680 Rocket 3.5 14:19:10 39° N 14:21:09 81° ENE 14:26:21 10° SSE
Cosmos 1980 3.5 14:28:08 39° NNW 14:30:19 74° WSW 14:35:57 10° S
Cosmos 1726 Rocket 3.6 14:26:19 10° N 14:30:39 73° E 14:34:57 10° S
SL-16 R/B 3.5 14:31:29 10° N 14:36:47 40° ENE 14:42:03 10° SE
Meteor 2-9 Rocket 4.3 14:34:28 10° N 14:40:14 83° E 14:46:05 10° S
CZ-4C R/B 4.1 14:44:31 23° SW 14:44:31 23° SW 14:48:29 10° SSW
BREEZE-M DEB (TANK) 3.7 14:41:07 22° SSE 14:42:18 30° ESE 14:46:59 10° NE
Thor Agena Rocket 3.7 14:38:45 10° SSE 14:43:59 74° ENE 14:49:16 10° N
Cosmos 990 Rocket 3.9 14:44:15 35° SW 14:46:19 61° WNW 14:51:31 10° N
PSLV R/B 4.3 14:43:38 10° N 14:46:30 34° NW 14:46:30 34° NW
OTV 4 3.2 14:48:41 10° N 14:49:28 11° NNE 14:50:27 10° NE
Cosmos 2219 Rocket 3.8 14:55:24 17° SW 14:55:24 17° SW 14:57:07 10° SSW
GPS 2-18 Rocket1 3.1 14:55:26 48° WNW 14:56:23 72° N 15:00:20 10° E
Cosmos 972 Rocket 4.0 14:52:36 10° SSW 14:57:42 71° WNW 15:03:22 10° N
Cosmos 2228 3.1 14:53:53 10° N 14:58:15 80° E 15:02:34 10° S
Gbstr 26 Del rocket 4.5 14:51:27 13° NW 14:58:38 71° SW 15:06:41 10° SSE
GPS 2-17 Rocket1 3.3 14:58:00 32° SW 14:59:41 54° SSE 15:03:55 10° E
MOS 1 Rocket 3.4 14:55:29 10° N 15:00:31 80° WNW 15:05:49 10° SSW
Cosmos 2100 Rocket 4.0 14:55:16 10° NNW 15:01:23 57° W 15:07:33 10° S
Cosmos 2061 Rocket 4.0 14:55:34 10° NNW 15:01:50 65° W 15:08:10 10° S
Cosmos 1802 Rocket 3.8 14:56:58 10° N 15:03:04 73° W 15:09:10 10° S
Ariane Rocket 4.2 14:58:51 10° NNE 15:03:41 43° E 15:08:30 10° S
CZ-3 Stage 3 4.3 14:54:21 19° WSW 15:04:48 81° NNW 15:08:43 10° ENE
GPS 2-14 Rocket1 2.9 15:03:05 32° WSW 15:04:50 66° SSE 15:08:54 10° E
Cosmos 292 Rocket 3.7 15:01:56 10° NNW 15:06:44 63° WSW 15:11:29 10° S
Genesis I 4.5 15:07:09 24° NW 15:07:09 24° NW 15:10:07 10° N
COBE Rocket 3.7 15:03:03 10° N 15:07:41 66° WNW 15:12:16 10° SSW
CZ-4B R/B 3.7 15:08:43 10° N 15:12:24 56° WNW 15:15:59 10° SSW
Cosmos 1725 Rocket 4.3 15:07:07 10° N 15:13:22 70° E 15:19:32 10° SSE
Meteor 1-31 Rocket 3.0 15:12:21 10° N 15:16:06 46° WNW 15:19:52 10° SSW
CZ-3A R/B 2.3 15:09:06 19° W 15:16:16 59° NNW 15:19:15 10° ENE
Cosmos 1515 4.2 15:14:29 10° SSW 15:18:02 37° W 15:21:36 10° NNW
Cosmos 2098 Rocket 3.5 15:13:25 10° N 15:18:08 72° W 15:24:09 10° S
Cosmos 1125 Rocket 3.4 15:16:01 10° SSW 15:21:12 80° WNW 15:26:24 10° N
Cosmos 2263 Rocket 2.9 15:15:51 10° S 15:21:18 58° ESE 15:26:45 10° NNE
ARIANE 5 R/B 4.1 15:19:55 10° S 15:21:46 14° SSE 15:24:55 10° SE
Cosmos 2058 Rocket 3.9 15:20:57 10° NNW 15:24:39 28° W 15:28:22 10° SSW
Okean-O 4.0 15:22:46 10° NNW 15:25:52 19° WNW 15:27:58 14° WSW
USA 116 4.5 15:21:01 10° S 15:26:12 55° W 15:31:05 10° NNW
USA 215 3.9 15:21:27 10° S 15:27:17 35° SW 15:33:08 10° WNW
Cosmos 1825 Rocket 3.8 15:24:32 10° S 15:28:57 73° E 15:33:20 10° N
Cosmos 1340 2.7 15:27:20 10° SSW 15:31:02 55° W 15:34:46 10° N
Cosmos 724 4.4 15:27:12 10° NNW 15:33:24 74° WSW 15:39:31 10° SSE
GPS 2-15 Rocket1 3.1 15:30:44 14° W 15:34:46 88° SSW 15:39:32 10° E
Cosmos 2016 Rocket 4.3 15:29:19 10° NNW 15:35:13 43° W 15:41:02 10° SSW
Palapa 6 Rocket 3.5 15:31:24 14° W 15:35:17 45° SSW 15:39:11 10° SE
Cosmos 2333 Rocket 3.9 15:37:12 11° W 15:38:11 11° W 15:39:50 10° WSW
FALCON 9 R/B 4.4 15:35:46 10° WNW 15:43:08 45° N 16:11:38 10° ENE
Meteor 2-17 Rocket 4.4 15:41:54 10° N 15:48:01 77° W 15:54:09 10° S
Hubble Space Telescope 1.5 15:45:31 10° W 15:49:22 37° SSW 15:53:12 10° SE
